This demonstration page uses our WeatherBlox Daily Observations layout. Learn more.

Left ArrowRight Arrow

36.17497, -115.13722

Hourly Observations for January 31, 2019

Temp ( °F °C ) Dew Point ( °F °C ) Humidity (%) Winds ( mph kmh ) Pressure ( in mb ) Visibility ( mi km ) Precip ( " mm )
12:53 am 00:53 Clear 45 7.2 29 -1.7 54 54 NNW 5 7 30 1016 10 16.0934 N/A
1:53 am 01:53 Clear 46 7.8 27 -2.8 47 47 NW 6 9 30 1016 10 16.0934 N/A
2:53 am 02:53 Clear 46 7.8 27 -2.8 47 47 WNW 5 7 30 1016 10 16.0934 N/A
3:53 am 03:53 Clear 44 6.7 27 -2.8 51 51 Calm 30.01 1016 10 16.0934 N/A
4:53 am 04:53 Clear 43 6.1 28 -2.2 56 56 Calm 30.02 1017 10 16.0934 N/A
5:53 am 05:53 Clear 42 5.6 28 -2.2 58 58 W 3 6 30.03 1017 10 16.0934 N/A
6:53 am 06:53 Sunny 41 5 28 -2.2 60 60 Calm 30.04 1017 10 16.0934 N/A
7:53 am 07:53 Sunny 47 8.3 29 -1.7 50 50 Calm 30.05 1018 10 16.0934 N/A
8:53 am 08:53 Sunny 51 10.6 27 -2.8 39 39 SSE 3 6 30.06 1018 10 16.0934 N/A
9:53 am 09:53 Sunny 53 11.7 25 -3.9 34 34 SSE 7 11 30.08 1019 10 16.0934 N/A
10:53 am 10:53 Sunny 56 13.3 25 -3.9 30 30 SE 5 7 30.06 1018 10 16.0934 N/A
11:53 am 11:53 Mostly Cloudy 58 14.4 24 -4.4 27 27 SSE 6 9 30.04 1017 10 16.0934 N/A
12:53 pm 12:53 Mostly Cloudy 60 15.6 23 -5 24 24 SSE 5 7 30.01 1016 10 16.0934 N/A
1:53 pm 13:53 Cloudy 60 15.6 23 -5 24 24 SE 6 9 30 1016 10 16.0934 N/A
2:53 pm 14:53 Mostly Cloudy 60 15.6 23 -5 24 24 S 5 7 29.99 1016 10 16.0934 N/A
3:53 pm 15:53 Sunny 61 16.1 24 -4.4 24 24 SSE 3 6 29.98 1015 10 16.0934 N/A
4:53 pm 16:53 Sunny 60 15.6 24 -4.4 25 25 Calm 29.98 1015 10 16.0934 N/A
5:53 pm 17:53 Clear 58 14.4 25 -3.9 28 28 Calm 29.99 1016 10 16.0934 N/A
6:53 pm 18:53 Clear 55 12.8 25 -3.9 31 31 Calm 30.01 1016 10 16.0934 N/A
7:53 pm 19:53 Partly Cloudy 53 11.7 27 -2.8 37 37 NNW 3 6 30.02 1017 10 16.0934 N/A
8:53 pm 20:53 Mostly Clear 50 10 28 -2.2 43 43 NW 6 9 30.03 1017 10 16.0934 N/A
9:53 pm 21:53 Clear 50 10 28 -2.2 43 43 WNW 8 13 30.04 1017 10 16.0934 N/A
10:53 pm 22:53 Mostly Cloudy 48 8.9 28 -2.2 46 46 N 3 6 30.05 1018 10 16.0934 N/A
11:53 pm 23:53 Cloudy 47 8.3 28 -2.2 48 48 NW 5 7 30.04 1017 10 16.0934 N/A

Powered by AerisWeather